[[{"header":{"parameterUnit":"m.s-1","parameterCategory":1,"la1":30.2992,"la2":30.254,"lo1":-89.0895,"lo2":-89.0443,"dy":0.0025,"dx":0.0025,"nx":19,"ny":19,"refTime":"2026-04-30T09:00:00:Z","depth":0,"parameterNumber":2,"parameterNumberName":"U-component_of_WINDS"},"data":[0,0,0,-5.3217,-5.322,-5.3348,-5.3349,-5.3549,-5.3551,0,0,0,0,0,0,0,0,0,0,0,-5.3202,-5.3204,-5.3217,-5.3221,-5.3348,-5.3349,-5.3549,-5.3551,0,0,0,0,0,0,0,0,0,0,0,-5.3201,-5.3204,-5.3206,-5.3221,-5.3348,-5.3349,-5.3548,-5.3439,0,0,0,0,0,0,0,0,0,0,-5.3308,-5.3316,-5.3203,-5.3206,-5.3222,-5.3348,-5.3349,-5.3433,-5.3446,-5.3508,0,-5.3569,0,-5.3564,-5.3567,-5.3568,0,0,0,-5.3204,-5.3306,-5.332,-5.3207,-5.3224,-5.3348,-5.3286,-5.344,-5.3454,-5.3525,-5.3571,-5.3577,-5.3567,-5.3569,-5.357,-5.3985,-5.3987,0,0,-5.3197,-5.3237,-5.331,-5.3331,-5.3313,-5.3282,-5.329,-5.3448,-5.3501,-5.3572,-5.3581,-5.357,-5.357,-5.3572,-5.3982,-5.3985,0,0,0,-5.3188,-5.3233,-5.3242,-5.3323,-5.3344,-5.3286,-5.3296,-5.3494,-5.3493,-5.3583,-5.3573,-5.3572,-5.3575,-5.3979,-5.3983,-5.416,0,0,0,-5.3183,-5.3228,-5.324,-5.3266,-5.3341,-5.342,-5.3339,-5.3483,-5.3499,-5.3572,-5.3572,-5.3577,-5.3976,-5.3981,-5.4149,-5.4238,0,0,0,-5.3186,-5.3228,-5.3254,-5.3268,-5.3324,-5.3417,-5.3425,-5.3485,-5.3494,-5.3568,-5.3578,-5.3974,-5.398,-5.4138,-5.4221,-5.4361,0,0,0,-5.3201,-5.3408,-5.3258,-5.3484,-5.3324,-5.3524,-5.3423,-5.3571,-5.3656,-5.3573,-5.3976,-5.3983,-5.4135,-5.421,-5.4351,-5.4489,-5.4549,0,0,-5.3485,-5.3443,-5.3573,-5.3443,-5.3681,-5.3502,-5.3765,-5.3804,-5.3774,-5.3916,-5.3926,-5.4152,-5.422,-5.4359,-5.4869,-5.4918,0,0,0,-5.3677,-5.3772,-5.3826,-5.3909,-5.3944,-5.3982,-5.3976,-5.3991,-5.411,-5.3855,-5.4238,-5.4276,-5.4357,-5.4421,-5.4462,-5.453,-5.4013,-5.4013,-5.4012,-5.4139,-5.4089,-5.4302,-5.4269,-5.435,-5.4343,-5.4405,-5.4423,-5.4348,-5.4439,-5.4483,-5.4798,-5.4875,-5.4906,-5.4977,-5.4548,-5.4549,-5.455,-5.455,-5.4553,-5.468,-5.4576,-5.4745,-5.4692,-5.4833,-5.4834,-5.4776,-5.4901,-5.4761,-5.4829,-5.4684,-5.4961,-5.502,-5.4563,-5.4561,-5.4559,-5.4558,-5.4557,-5.4852,-5.4905,-5.4919,-5.5035,-5.513,-5.5087,-5.5213,-5.5158,-5.5108,-5.5175,-5.5216,-5.5213,-5.5206,-5.5198,-5.5199,-5.52,-5.5201,-5.5202,-5.5202,-5.5159,-5.5169,-5.5282,-5.5337,-5.5384,-5.5439,-5.5433,-5.5478,-5.5514,-5.5465,-5.5465,-5.5383,-5.4995,-5.4902,-5.5219,-5.5216,-5.5214,-5.5212,-5.5211,-5.5604,-5.5494,-5.5669,-5.5717,-5.5777,-5.5877,-5.5804,-5.5901,-5.593,-5.5994,-5.5897,-5.5618,-5.5572,-5.5539,-5.5461,-5.5904,-5.5904,-5.5904,-5.5905,-5.586,-5.583,-5.5997,-5.6077,-5.6148,-5.6101,-5.6302,-5.6299,-5.628,-5.6295,-5.6222,-5.6112,-5.6081,-5.6054,-5.6009,-5.5936,-5.649,-5.6491,-5.6491,-5.6132,-5.6107,-5.6288,-5.6268,-5.6311,-5.635,-5.6538,-5.6634,-5.6588,-5.6514,-5.6306,-5.6282,-5.6104,-5.6048,-5.5973,-5.5906,-5.577,0,0]},{"header":{"parameterUnit":"m.s-1","parameterCategory":1,"la1":30.2992,"la2":30.254,"lo1":-89.0895,"lo2":-89.0443,"dy":0.0025,"dx":0.0025,"nx":19,"ny":19,"refTime":"2026-04-30T09:00:00:Z","depth":0,"parameterNumber":3,"parameterNumberName":"V-component_of_WINDS"},"data":[0,0,0,-4.1816,-4.1815,-4.1776,-4.1776,-4.174,-4.174,0,0,0,0,0,0,0,0,0,0,0,-4.184,-4.184,-4.1816,-4.1815,-4.1776,-4.1776,-4.174,-4.174,0,0,0,0,0,0,0,0,0,0,0,-4.184,-4.184,-4.184,-4.1815,-4.1776,-4.1776,-4.174,-4.1764,0,0,0,0,0,0,0,0,0,0,-4.18,-4.1834,-4.184,-4.184,-4.1815,-4.1776,-4.1776,-4.1765,-4.1763,-4.1765,0,-4.1773,0,-4.1756,-4.1739,-4.1739,0,0,0,-4.1806,-4.1836,-4.1815,-4.184,-4.1815,-4.1776,-4.1791,-4.1763,-4.1761,-4.1762,-4.1773,-4.1771,-4.1756,-4.1739,-4.1739,-4.1788,-4.1789,0,0,-4.1808,-4.1839,-4.1817,-4.1814,-4.1823,-4.1792,-4.179,-4.1762,-4.1774,-4.1772,-4.177,-4.1755,-4.1739,-4.1738,-4.1787,-4.1788,0,0,0,-4.1821,-4.1841,-4.1819,-4.1816,-4.1807,-4.1792,-4.1789,-4.1775,-4.1766,-4.1769,-4.1755,-4.1739,-4.1738,-4.1786,-4.1788,-4.1849,0,0,0,-4.1822,-4.1848,-4.1821,-4.1839,-4.1808,-4.1792,-4.1804,-4.1768,-4.1764,-4.1755,-4.1739,-4.1738,-4.1786,-4.1787,-4.1846,-4.1873,0,0,0,-4.1838,-4.185,-4.1848,-4.1841,-4.1825,-4.1791,-4.178,-4.1766,-4.1755,-4.1739,-4.1738,-4.1785,-4.1787,-4.1843,-4.1868,-4.1892,0,0,0,-4.1864,-4.1905,-4.185,-4.1889,-4.1826,-4.1831,-4.178,-4.1782,-4.1775,-4.1738,-4.1786,-4.1787,-4.1842,-4.1865,-4.1889,-4.1917,-4.1932,0,0,-4.1933,-4.1915,-4.1935,-4.1884,-4.1907,-4.1834,-4.1864,-4.1829,-4.1799,-4.1793,-4.1793,-4.1847,-4.1867,-4.1891,-4.2009,-4.2022,0,0,0,-4.1967,-4.1982,-4.1981,-4.1976,-4.1951,-4.1929,-4.1886,-4.1872,-4.1864,-4.1803,-4.1862,-4.1874,-4.1886,-4.1898,-4.1908,-4.1916,-4.1795,-4.1795,-4.1794,-4.2108,-4.2066,-4.2096,-4.205,-4.2045,-4.1998,-4.1989,-4.1962,-4.1923,-4.1937,-4.1935,-4.2012,-4.2027,-4.2034,-4.2043,-4.1948,-4.1948,-4.1948,-4.1948,-4.2202,-4.2215,-4.216,-4.2169,-4.2124,-4.213,-4.2085,-4.2056,-4.2053,-4.2011,-4.202,-4.1977,-4.2049,-4.2054,-4.1953,-4.1952,-4.1951,-4.1951,-4.1951,-4.2288,-4.2287,-4.2269,-4.2255,-4.2248,-4.2198,-4.2196,-4.2156,-4.2117,-4.2126,-4.2117,-4.2115,-4.2107,-4.2125,-4.2125,-4.2125,-4.2126,-4.2126,-4.2126,-4.2384,-4.2362,-4.2367,-4.234,-4.2329,-4.2309,-4.2259,-4.2246,-4.2221,-4.2191,-4.2191,-4.2148,-4.2065,-4.2044,-4.213,-4.2129,-4.2129,-4.2128,-4.2128,-4.2492,-4.246,-4.2468,-4.2457,-4.2419,-4.2412,-4.236,-4.2336,-4.2319,-4.2319,-4.2273,-4.2219,-4.2197,-4.2188,-4.217,-4.2284,-4.2284,-4.2284,-4.2284,-4.2563,-4.2548,-4.2544,-4.2528,-4.2508,-4.246,-4.2465,-4.2425,-4.2378,-4.2364,-4.2342,-4.2315,-4.2308,-4.229,-4.2279,-4.2261,-4.2395,-4.2396,-4.2396,-4.2625,-4.2606,-4.262,-4.2575,-4.2541,-4.2512,-4.2514,-4.2495,-4.2436,-4.2399,-4.2351,-4.2346,-4.2302,-4.2291,-4.2254,-4.2238,-4.2205,0,0]}]]